GFSNGP_sfc_rhum_003.txt.gz
RH
67 61 57 59 57 56 60 59 73 60 52 42 39 40 50 50 51 50 62 64 63 63 65 66 62 65 60 55 54 51 45 52 72 71 65 61 61 58 62 62 59 61 63 61
88 69 67 72 67 59 57 58 55 51 49 39 34 50 55 57 57 66 66 65 61 64 63 63 63 64 62 62 68 70 74 82 82 76 71 64 54 57 66 63 64 58 61 64
85 80 84 88 66 62 54 46 52 72 61 61 63 60 62 65 72 73 68 68 68 68 67 64 73 66 73 74 72 77 80 78 84 84 85 80 61 56 60 62 60 61 63 64
97 99 97 61 43 41 53 50 53 68 73 71 77 70 63 60 76 70 67 73 75 67 65 76 77 81 84 84 79 77 76 76 81 84 78 56 56 57 59 59 60 62 65 70
99 98 79 67 57 66 60 57 73 71 62 63 72 72 70 66 75 73 72 76 70 70 78 83 82 85 86 87 85 84 82 71 56 55 54 53 55 57 58 59 60 67 68 72
98 98 92 67 52 53 52 75 79 76 90 89 88 95 79 74 70 69 78 70 70 72 79 83 84 78 76 64 77 52 48 48 49 51 50 50 54 56 58 62 61 70 74 87
99 96 84 61 51 64 89 80 80 93 87 88 90 87 74 68 72 71 65 67 73 78 73 74 62 54 52 38 43 45 50 50 49 48 48 51 58 61 59 63 78 92 94 90
98 99 95 55 61 77 73 82 73 84 85 78 76 80 67 67 71 68 78 80 78 78 79 68 55 51 32 38 40 47 50 52 53 57 51 49 57 60 65 74 94 94 95 94
84 83 66 55 57 57 55 61 81 86 76 83 82 76 64 55 68 77 82 86 79 83 68 60 42 39 47 51 48 56 60 64 66 62 61 56 62 67 73 83 96 98 94 92
84 63 56 58 52 52 56 76 71 79 87 73 74 69 56 67 76 85 89 90 82 70 57 60 45 47 50 62 63 58 71 74 73 76 71 67 66 70 75 96 97 91 94 93
81 66 60 59 62 63 68 85 90 81 74 70 62 71 73 71 74 85 86 84 79 68 65 58 59 63 59 64 68 76 81 81 83 83 78 75 73 73 92 93 92 88 88 97
87 62 69 67 67 69 77 84 84 78 61 61 72 75 69 71 80 83 84 83 75 66 53 54 60 62 68 76 78 87 87 88 95 93 89 84 80 78 69 77 75 70 74 96
74 62 61 70 66 59 65 66 48 49 62 65 74 69 77 80 72 77 74 76 61 47 52 62 62 62 72 85 92 93 95 91 95 90 94 96 94 93 95 89 74 72 77 85
56 60 77 83 78 54 44 42 44 44 60 63 66 70 73 75 72 72 66 54 51 49 54 58 63 69 74 82 93 94 93 91 96 96 96 96 96 94 98 97 97 96 87 89
61 68 65 55 46 40 40 43 50 60 71 73 75 79 76 73 73 67 60 61 59 63 67 66 66 70 82 80 85 87 89 94 95 94 97 95 96 96 96 96 97 98 92 85
54 52 47 51 49 50 48 50 63 74 82 81 84 86 82 68 69 69 75 81 79 85 88 96 97 92 88 84 86 91 91 78 84 95 95 96 97 96 97 97 98 98 96 95
79 81 66 59 57 56 59 66 82 86 88 90 93 92 83 88 93 93 91 97 97 97 96 98 96 94 93 88 86 96 96 95 89 92 93 96 97 96 98 97 98 98 97 96
54 50 46 48 50 68 80 83 93 94 91 92 98 98 97 94 93 95 97 97 96 95 96 98 98 95 95 92 83 93 97 96 96 96 98 96 96 97 97 97 98 98 98 96
47 50 53 53 69 82 86 90 97 98 98 97 98 90 94 98 98 97 97 99 99 98 99 94 91 88 94 91 87 96 97 97 97 97 98 96 98 97 97 98 98 98 98 97
62 65 68 74 79 98 97 97 94 98 97 96 95 98 99 98 99 99 92 96 100 99 98 95 94 96 97 97 92 96 98 97 98 98 97 97 97 97 97 99 98 98 98 98
80 83 89 92 97 99 99 96 99 98 92 96 95 95 96 96 99 86 93 90 87 91 90 89 91 98 99 99 96 98 98 99 98 98 97 98 97 97 98 98 98 99 98 98
86 90 90 92 95 95 94 97 97 96 98 97 98 97 96 96 96 94 96 92 82 90 88 89 94 98 99 100 100 98 98 98 98 98 98 97 97 97 98 97 99 98 98 99
90 92 93 97 98 96 96 99 99 98 97 96 98 92 91 98 97 96 91 90 82 88 83 89 96 95 95 97 95 97 98 98 98 97 97 97 97 96 98 96 98 97 97 99
89 91 94 97 100 98 98 94 99 97 97 97 92 91 100 99 96 98 96 92 90 92 94 96 96 92 90 97 98 98 98 98 99 98 98 91 96 97 96 96 97 96 97 97
85 90 95 98 98 96 95 99 99 97 99 96 96 98 97 95 93 90 90 89 92 96 88 93 94 90 96 97 98 98 99 99 98 98 98 97 95 96 98 97 96 96 96 97
87 83 96 95 93 90 98 99 97 97 99 99 99 99 98 96 88 89 98 99 97 91 92 98 99 98 98 98 98 99 99 99 98 96 95 97 95 95 97 96 96 96 96 96
83 99 100 98 98 97 98 99 99 99 99 98 98 98 97 97 86 82 82 95 94 92 93 94 96 98 98 98 99 99 98 98 98 98 98 97 97 96 96 96 96 95 96 96

GFSNGP_sfc_rhum_009.txt.gz
RH
74 69 71 70 74 72 81 80 91 77 76 62 65 76 72 68 70 70 66 67 72 70 72 77 82 82 85 79 81 84 88 73 72 67 68 70 83 90 78 69 67 70 67 64
87 80 81 86 78 80 79 82 82 79 73 57 77 77 78 76 73 76 76 75 73 65 70 82 82 84 80 82 87 92 90 87 82 88 91 92 91 89 87 84 66 60 59 63
86 93 96 82 80 83 76 64 66 81 68 79 82 80 85 78 78 80 74 77 70 71 79 85 85 83 86 89 91 90 89 88 90 93 94 92 87 85 69 61 59 58 60 65
96 94 94 60 60 57 65 62 64 66 78 78 81 76 80 76 84 80 82 66 65 76 89 80 82 85 90 91 91 87 70 64 63 64 62 63 61 58 60 61 59 61 67 74
98 97 81 64 58 72 72 65 66 76 82 73 67 89 90 77 84 74 67 66 81 80 79 84 88 90 68 58 58 58 58 59 62 65 65 60 59 63 63 63 63 69 75 82
97 98 97 70 53 58 72 93 77 83 81 70 82 97 80 87 77 80 74 73 75 76 79 88 86 53 58 57 50 56 56 56 59 59 59 62 64 63 61 64 69 79 79 79
99 98 89 67 59 63 90 79 71 74 69 78 86 88 90 79 75 69 75 75 76 83 90 87 69 52 51 52 57 58 60 61 63 64 64 65 63 64 70 78 86 93 92 90
98 99 95 63 66 78 72 76 75 74 79 88 91 90 87 74 79 71 80 82 82 90 91 82 50 50 49 58 61 64 66 68 72 75 66 60 68 75 76 84 93 92 96 94
79 83 68 61 66 66 70 78 82 89 91 92 88 88 74 72 72 75 81 88 87 92 89 68 50 48 56 67 61 68 72 75 80 78 74 70 78 82 77 85 95 95 95 94
81 67 62 65 60 56 66 80 89 82 83 88 96 77 67 68 74 74 81 89 90 93 94 94 65 56 57 65 68 71 74 78 82 88 82 81 77 77 82 95 96 94 96 94
83 74 75 68 66 74 79 86 83 83 87 88 78 66 58 76 74 76 84 88 93 95 92 89 74 66 64 67 72 71 77 80 84 89 90 84 76 84 90 93 96 95 96 97
93 68 72 64 86 90 88 86 84 84 78 70 64 64 71 80 80 81 82 88 92 85 87 67 69 72 70 75 77 79 79 85 94 97 97 90 83 82 76 80 75 73 76 85
79 64 74 90 80 76 80 80 77 83 78 81 74 80 82 85 83 82 85 85 82 80 72 67 72 74 73 84 93 94 95 94 96 95 98 96 96 97 99 87 77 77 76 72
66 80 89 85 86 70 67 65 64 59 60 69 77 81 82 85 85 84 78 72 71 66 67 80 77 74 79 84 96 97 97 96 99 99 98 98 97 98 99 99 100 97 87 77
80 82 81 76 73 67 57 62 68 71 75 77 82 88 90 92 91 79 71 79 82 74 79 86 90 88 90 93 93 96 96 96 95 98 98 98 98 98 98 99 99 99 98 94
75 71 68 71 68 61 58 65 76 82 84 86 91 92 93 88 76 74 79 92 96 98 97 99 99 96 93 92 89 98 95 95 94 97 98 99 98 99 99 99 99 100 100 99
76 74 64 59 61 64 69 79 88 91 93 95 96 99 96 89 88 88 90 97 98 98 97 98 99 90 95 97 98 98 98 98 96 95 99 100 98 99 99 99 100 100 100 99
59 58 58 58 62 72 83 88 94 94 97 94 94 98 98 95 94 90 97 98 97 98 98 99 97 93 97 94 90 97 98 99 99 99 99 100 99 99 99 99 100 100 100 98
58 59 62 65 70 79 87 92 96 98 98 98 98 98 95 95 96 99 97 98 98 98 94 98 93 91 96 98 98 97 99 98 99 99 100 100 99 100 100 100 100 100 100 98
69 69 74 77 79 89 88 93 98 97 91 97 98 98 97 95 96 100 97 96 93 95 96 82 90 93 99 99 98 98 98 98 98 100 100 100 100 100 100 100 98 100 100 100
72 76 83 87 86 87 93 90 95 97 91 97 98 98 97 95 97 98 98 96 90 91 80 88 93 98 100 98 98 98 98 98 98 100 100 100 100 100 100 100 100 100 99 100
78 84 86 86 89 88 85 91 93 94 96 92 92 97 98 97 97 97 96 94 94 85 94 94 96 96 98 95 98 98 99 98 98 98 99 99 100 100 100 100 100 100 100 100
81 84 83 87 86 82 87 94 96 95 98 95 98 98 98 98 98 98 98 92 95 91 96 96 94 95 92 97 99 98 98 98 98 100 98 98 99 99 100 100 100 100 100 99
83 84 84 84 88 96 94 85 92 95 95 95 98 98 98 99 98 97 98 93 92 92 96 97 94 96 92 98 98 98 98 98 99 100 99 97 98 99 100 100 100 100 100 99
88 87 87 91 91 89 90 88 94 96 98 98 98 98 98 98 96 96 97 94 97 95 98 94 99 100 100 98 98 98 98 98 99 100 100 100 99 98 100 100 100 100 100 98
85 86 87 88 91 90 91 95 98 97 99 98 99 99 99 98 96 92 93 92 98 93 96 98 98 98 99 99 99 98 98 99 99 99 99 100 100 98 99 100 100 100 99 98
94 98 92 89 91 92 94 97 99 98 98 98 98 98 98 98 96 93 92 95 96 97 97 98 98 98 99 99 100 100 98 98 99 98 99 99 98 98 97 98 97 98 99 98

GFSNGP_sfc_rhum_015.txt.gz
RH
65 60 66 66 66 67 72 68 81 61 57 50 49 56 55 55 57 58 55 61 65 61 57 57 63 64 61 60 64 69 72 73 74 78 79 82 73 64 64 59 61 70 70 52
86 76 73 83 68 71 72 70 70 69 70 50 54 61 60 57 58 61 69 71 60 52 50 56 66 62 62 64 70 77 72 70 62 64 60 57 61 62 67 64 50 48 49 52
79 80 79 79 57 67 60 60 61 68 48 59 59 62 57 56 62 78 75 67 60 52 57 67 61 60 66 66 66 61 61 56 59 60 60 57 51 47 49 51 49 49 50 52
96 88 78 49 50 50 57 54 56 56 56 57 56 54 58 72 79 82 75 69 56 54 67 62 57 65 62 53 56 57 57 60 61 54 49 50 50 50 50 48 49 50 53 56
97 84 73 56 48 54 64 55 50 58 59 56 54 61 64 80 78 77 78 64 51 62 64 58 65 66 45 45 48 54 56 50 48 53 51 52 53 52 51 51 52 53 53 54
96 98 95 67 47 51 60 70 58 62 66 68 67 97 76 84 83 67 57 48 58 62 61 62 65 68 60 51 56 52 50 50 50 53 55 54 54 53 52 53 52 55 56 56
92 94 83 62 56 55 87 80 71 69 65 71 81 95 91 84 71 56 52 50 58 59 62 62 67 66 60 50 47 48 52 52 51 54 56 55 53 53 52 52 67 80 85 82
97 98 94 54 57 77 70 70 64 68 73 87 93 91 84 75 67 55 56 55 60 61 62 63 67 60 46 48 47 54 55 52 51 55 56 51 54 53 53 59 74 83 86 82
77 80 64 55 60 58 66 79 81 86 91 92 93 83 67 69 62 62 59 60 61 62 67 70 68 64 56 59 66 69 56 53 54 56 56 54 56 61 57 59 72 77 70 75
83 68 60 64 59 79 81 93 90 86 87 82 84 73 67 65 64 63 61 65 63 65 66 73 65 64 64 62 55 54 55 55 56 60 62 60 61 62 59 71 75 73 76 75
88 71 68 67 78 90 94 91 88 79 79 77 72 68 69 69 67 66 70 68 68 71 73 75 70 71 62 57 59 59 60 61 64 68 68 65 64 63 68 75 78 80 73 74
88 66 78 90 95 93 89 80 73 79 68 59 66 72 71 66 68 72 75 72 73 70 69 59 60 59 60 62 63 66 66 65 73 73 74 66 60 62 68 78 78 73 72 79
75 74 90 94 87 75 72 68 55 53 54 59 62 68 71 74 75 78 73 69 67 64 63 60 64 63 65 81 85 86 83 83 76 83 76 73 75 76 79 72 76 74 76 73
74 79 91 82 74 62 47 43 50 49 49 56 67 70 76 78 77 72 68 67 68 64 67 69 72 76 81 79 88 92 90 94 84 83 79 80 82 82 81 85 89 83 75 75
73 69 65 53 48 44 44 47 50 49 53 62 66 75 75 78 76 74 71 71 67 67 66 74 81 77 76 78 87 89 92 83 90 90 89 89 88 83 83 83 83 81 77 71
58 54 51 53 51 52 51 52 53 53 56 63 73 80 79 86 89 91 82 77 84 78 82 94 90 81 76 80 83 82 78 90 92 89 85 85 84 84 81 83 80 82 82 83
66 65 61 63 63 62 62 60 62 63 66 74 81 92 92 95 90 92 92 90 94 97 95 96 90 71 74 75 80 76 82 82 96 79 80 85 87 85 84 85 86 83 86 90
55 56 57 62 64 68 73 74 81 80 80 77 87 93 92 98 98 95 91 95 96 96 95 94 93 83 81 82 87 88 92 91 89 87 85 88 86 84 87 87 85 86 86 84
54 59 60 62 68 75 76 76 80 81 85 88 92 93 90 94 96 91 93 96 97 96 87 87 84 83 80 88 88 87 91 92 89 86 89 94 91 85 88 90 88 88 88 86
62 62 66 68 72 80 83 82 87 85 83 88 91 94 94 94 89 92 97 96 92 87 85 82 80 87 89 92 89 82 92 93 89 90 94 92 94 94 93 91 90 90 92 90
71 74 83 87 86 86 90 89 91 90 86 90 96 93 95 94 95 99 96 90 86 93 87 80 80 80 83 82 79 89 93 93 93 91 93 95 95 93 94 93 92 93 92 92
74 85 88 88 90 89 86 90 90 92 92 93 92 93 95 96 99 98 95 92 84 88 80 78 78 83 85 93 82 92 91 91 91 93 94 95 94 94 94 94 93 93 93 93
78 82 85 91 92 86 89 91 91 93 93 92 94 95 96 95 97 96 92 88 88 93 83 90 91 87 89 98 96 93 92 91 91 90 94 95 95 95 95 93 93 94 93 91
81 85 85 87 93 95 95 84 85 88 92 93 94 95 96 98 97 93 91 91 94 96 94 95 94 88 95 98 97 96 95 95 94 92 94 97 96 95 95 95 94 93 94 95
89 88 90 95 94 88 89 89 90 83 84 87 93 95 96 94 98 95 96 96 89 91 94 98 90 92 100 99 96 93 91 93 95 95 94 96 95 95 94 94 95 94 93 91
85 84 86 91 89 83 85 90 93 89 84 92 92 100 99 98 96 94 92 87 86 88 92 95 96 97 97 96 96 95 93 92 94 93 95 94 94 94 94 93 94 94 93 90
89 97 90 86 81 79 81 93 98 94 92 95 98 100 98 99 99 96 90 90 91 90 91 93 97 96 93 94 95 94 94 94 96 93 94 94 94 94 94 94 94 93 94 92

GFSNGP_sfc_rhum_018.txt.gz
RH
39 35 35 42 41 37 42 48 60 47 35 31 31 34 37 42 40 39 39 44 46 46 45 34 38 46 42 39 41 48 48 47 61 64 62 62 55 49 46 46 44 43 42 42
60 45 42 51 40 40 44 43 40 42 43 32 33 39 44 42 41 43 51 52 50 45 37 36 44 44 39 40 44 46 45 48 48 48 44 46 46 44 41 39 37 38 39 41
84 56 62 85 51 42 42 37 42 50 36 37 41 44 45 45 46 57 61 55 48 42 37 43 47 39 40 40 40 44 46 44 45 48 45 42 38 35 37 40 40 41 41 42
98 92 92 46 34 34 40 38 33 35 36 44 43 44 40 49 60 73 72 44 37 35 38 44 39 36 40 34 37 43 44 44 42 43 42 37 35 36 40 41 42 42 44 46
100 75 53 40 39 44 46 48 36 40 44 45 47 44 42 66 77 82 57 38 35 33 39 44 37 35 40 41 38 41 46 43 46 43 39 34 36 40 41 42 43 44 45 47
94 99 92 47 39 40 46 55 48 52 60 71 72 91 64 81 72 51 40 35 34 34 41 43 36 38 42 39 36 40 41 45 43 40 37 37 41 43 43 42 43 46 53 54
91 97 70 42 43 45 78 73 58 62 75 84 90 96 90 76 57 39 37 36 33 35 41 39 39 43 45 34 32 33 37 43 42 37 36 39 43 43 43 45 55 76 90 78
95 99 97 40 43 77 64 57 59 67 83 94 89 83 70 53 43 40 38 37 33 36 36 38 39 44 40 33 27 32 39 46 43 38 37 38 44 45 46 49 61 81 94 88
61 64 42 42 47 47 51 62 77 90 85 66 61 52 47 42 38 35 36 36 36 38 40 39 38 41 44 39 38 44 52 61 46 41 42 43 47 50 51 49 66 78 68 75
71 48 43 48 47 55 66 87 88 73 56 53 50 46 42 33 31 35 38 41 40 42 41 44 41 48 51 53 56 56 52 64 46 46 49 46 47 48 46 62 76 69 72 70
64 55 53 49 72 76 85 84 64 51 46 43 36 35 32 35 35 36 40 40 41 40 41 40 42 45 46 49 48 47 50 53 52 55 55 54 51 48 56 63 74 72 67 66
84 62 78 91 82 90 80 53 47 42 34 30 30 31 34 34 33 36 41 43 41 39 40 39 44 51 47 47 52 56 57 54 57 63 62 60 52 53 70 73 74 72 71 77
77 67 71 87 79 56 52 40 31 32 32 32 28 32 37 39 39 50 43 40 41 45 44 47 54 57 50 70 80 85 74 73 65 72 68 65 64 65 69 63 68 73 71 68
63 64 78 75 65 40 34 33 36 30 26 27 34 37 38 40 40 40 42 44 49 51 51 54 60 58 64 59 68 88 83 92 76 71 70 69 72 75 74 75 78 70 64 64
51 48 49 42 38 35 32 30 30 28 31 36 37 44 48 52 51 52 54 59 64 63 61 61 60 73 61 66 68 71 70 66 84 84 83 81 80 78 74 74 70 66 62 55
46 40 36 38 35 30 27 28 35 40 41 42 46 52 51 52 57 60 68 80 91 88 79 90 95 86 64 59 58 56 59 86 82 77 75 72 74 74 71 72 68 68 66 67
50 49 41 39 33 35 36 39 44 44 52 56 61 76 69 79 89 84 81 89 97 100 96 98 96 70 64 58 61 62 65 64 85 72 72 72 75 76 74 74 72 70 72 80
35 34 31 36 39 46 51 52 60 64 66 66 90 92 93 94 95 90 98 99 100 98 95 94 92 70 68 60 71 66 70 77 78 77 74 80 77 75 77 77 72 71 73 72
31 34 37 43 49 57 59 60 69 79 90 93 95 95 95 95 96 97 100 100 100 96 82 94 84 80 66 75 76 69 75 84 78 74 81 81 83 79 82 81 79 77 74 71
36 38 44 51 60 72 82 82 94 85 79 88 94 96 97 95 98 100 100 100 98 85 90 81 77 79 83 75 82 64 81 88 81 83 90 83 85 86 85 84 85 80 80 80
54 56 79 91 89 93 93 95 95 92 88 94 96 95 94 97 100 100 100 95 91 100 94 82 75 59 59 67 68 85 92 94 95 90 91 89 85 84 86 86 86 85 80 80
55 77 98 94 93 89 91 95 91 97 96 94 92 93 95 94 97 99 100 98 81 90 80 77 66 73 64 85 72 97 84 87 89 90 91 92 86 86 85 87 86 85 81 82
61 66 76 94 96 80 89 95 97 100 99 95 98 99 98 92 89 98 92 99 79 92 84 88 86 87 88 100 100 100 99 94 93 92 94 91 85 85 84 84 84 84 83 81
64 70 73 85 97 96 95 70 82 88 94 96 92 91 96 100 99 89 92 94 86 94 99 100 98 90 87 100 100 100 97 93 94 95 93 90 92 88 86 85 85 82 83 86
86 80 80 96 87 66 67 66 76 81 87 90 93 90 97 97 100 99 100 100 95 90 100 95 88 90 100 100 100 98 92 89 94 94 92 93 93 91 87 85 87 86 83 85
69 65 62 71 74 70 69 68 76 79 86 95 91 96 98 100 100 99 100 98 97 88 98 100 100 100 100 98 98 96 93 85 85 85 86 87 90 89 89 88 87 87 87 85
69 84 74 71 65 68 73 75 91 90 92 100 97 99 96 100 100 99 98 100 100 100 100 100 100 95 96 100 93 92 91 92 86 86 86 85 86 87 87 88 90 90 85 86

GFSNGP_sfc_rhum_021.txt.gz
RH
32 25 23 25 28 27 29 31 50 42 32 26 26 29 31 31 31 32 33 35 37 40 38 33 28 32 34 33 32 31 35 35 39 43 44 45 46 44 40 37 33 31 33 34
51 30 26 34 27 27 27 31 30 31 33 25 27 26 32 33 38 43 39 41 48 42 32 28 29 33 33 33 32 32 35 37 36 40 45 48 44 42 36 32 32 34 35 36
69 47 58 84 43 30 28 29 34 46 34 26 31 36 46 48 46 44 49 58 56 35 30 29 31 32 31 30 30 30 34 34 37 44 44 44 37 31 32 35 36 38 37 37
95 89 91 39 26 26 31 29 27 27 28 30 38 43 39 48 56 56 63 56 40 30 28 28 28 30 30 27 29 31 30 34 41 42 45 39 32 31 34 36 38 39 41 41
99 65 46 37 35 36 42 43 29 34 36 37 42 47 41 58 58 50 51 40 32 28 26 25 27 29 28 29 29 28 28 30 34 43 41 35 32 36 37 38 40 40 40 50
90 98 90 45 31 33 35 56 41 44 47 51 52 84 64 73 57 48 36 30 27 25 24 25 25 28 29 28 30 30 26 29 32 37 38 35 34 38 38 38 38 40 53 55
90 96 63 34 35 37 66 69 52 52 68 76 89 80 71 63 43 34 30 28 25 26 26 26 26 27 29 28 31 28 27 30 33 43 46 35 37 38 37 39 49 68 86 73
90 97 92 34 37 75 60 59 62 66 77 85 69 60 48 40 35 29 26 23 23 27 28 27 26 28 26 26 27 34 39 43 60 80 55 36 41 40 40 43 52 70 95 88
57 59 36 36 42 47 52 59 64 71 70 62 51 41 38 34 28 24 23 22 24 26 29 28 26 26 29 31 36 44 50 61 69 55 49 41 46 45 42 42 58 79 69 76
65 41 38 45 49 62 57 63 67 69 50 42 42 36 32 26 22 20 19 21 23 26 27 30 27 25 28 35 48 48 53 53 59 60 54 45 42 38 40 55 69 67 68 70
63 45 49 59 71 76 68 69 59 42 39 37 31 30 25 21 21 22 24 24 27 29 30 29 28 31 33 45 48 50 52 49 50 52 52 59 52 44 52 57 69 66 64 66
82 59 81 83 81 79 68 49 42 37 32 30 27 24 24 26 26 26 28 28 28 27 28 30 32 40 47 49 54 61 62 54 56 59 59 64 54 54 70 72 71 70 67 75
55 56 65 82 76 55 48 39 31 33 30 26 23 23 27 30 30 36 31 30 30 34 35 40 48 54 51 62 64 74 70 70 68 76 77 69 66 70 74 66 86 76 71 67
51 64 81 65 56 42 34 32 33 25 21 23 27 28 29 29 31 31 31 33 36 44 53 56 54 59 62 63 61 74 73 82 76 80 78 77 78 78 74 77 82 74 90 69
55 58 53 43 37 33 29 25 24 25 27 28 27 30 34 39 40 39 38 40 51 65 72 67 64 65 66 66 62 59 61 64 82 87 86 83 83 81 77 78 75 68 63 63
42 38 35 36 32 26 24 27 30 31 30 33 42 50 47 48 50 52 55 60 82 83 84 94 91 75 68 59 55 51 50 82 79 74 82 79 76 77 76 76 74 70 67 69
50 48 41 36 29 29 29 30 34 37 45 52 52 67 72 77 82 70 71 80 100 100 100 99 93 72 67 60 54 55 65 65 81 70 78 76 76 81 79 78 78 74 74 86
34 29 26 28 30 35 41 47 52 52 57 60 90 97 96 94 92 93 89 94 100 100 100 88 86 74 66 58 61 61 68 77 80 84 78 83 82 75 81 80 78 78 74 73
27 27 28 29 35 47 53 53 54 69 92 99 99 97 96 97 93 90 95 100 100 100 94 92 89 79 63 66 71 65 78 83 83 80 82 81 87 84 86 87 83 83 78 74
28 27 31 38 49 65 74 72 96 75 69 82 99 98 97 94 93 93 97 99 96 94 92 78 74 74 72 66 82 62 80 87 83 86 91 85 89 92 89 85 85 84 86 84
44 46 54 82 83 98 100 100 100 92 84 98 100 95 91 90 93 97 97 88 82 100 88 82 75 63 54 63 68 89 92 92 91 90 92 96 94 88 89 90 91 88 87 85
46 61 100 100 95 83 85 88 85 100 100 100 99 94 98 96 96 95 100 98 82 99 84 82 73 74 62 80 62 98 86 85 88 92 91 95 95 91 88 89 89 88 87 85
47 50 65 94 100 76 80 92 100 100 100 98 98 100 97 86 88 93 94 90 91 99 88 92 89 86 84 100 100 100 99 98 95 94 97 99 94 88 90 90 89 87 87 85
53 54 60 72 92 95 94 67 67 80 100 99 100 100 97 96 99 90 94 90 97 95 99 100 98 88 89 100 100 100 100 100 98 100 91 88 100 95 88 90 87 87 87 86
69 68 69 92 83 69 54 52 64 69 76 71 85 87 97 88 100 98 100 100 99 98 100 99 92 90 100 100 100 100 100 100 96 94 88 88 94 98 99 92 90 90 86 87
58 57 54 56 60 57 60 60 69 73 75 91 90 100 100 100 99 100 100 100 99 94 99 100 100 100 100 100 100 100 98 89 91 88 89 87 88 88 91 91 92 90 90 88
56 70 59 62 59 57 63 68 89 90 89 100 98 100 94 100 100 98 98 100 100 100 100 100 100 99 98 100 100 98 96 94 88 86 83 83 88 91 92 90 90 91 92 90

GFSNGP_sfc_rhum_024.txt.gz
RH
33 24 23 24 26 25 28 31 49 41 30 26 30 30 32 40 40 40 39 40 44 48 47 40 34 34 35 40 38 41 38 41 48 52 52 57 61 62 57 53 46 46 46 50
59 26 26 34 29 30 27 26 26 32 33 24 26 37 41 40 38 41 51 50 48 47 41 34 32 33 36 38 38 40 40 41 40 50 51 57 59 61 56 49 49 51 52 53
79 57 63 89 56 29 28 27 31 52 35 26 41 44 46 47 49 55 54 54 50 45 38 33 34 30 31 35 36 37 38 36 40 53 50 55 50 49 48 53 53 55 56 56
94 92 86 36 24 25 32 28 28 28 28 38 44 42 37 52 59 60 53 47 44 38 33 32 28 27 32 32 36 39 41 45 36 53 52 51 54 49 51 54 57 58 60 60
100 71 51 36 34 39 44 45 34 40 44 45 45 46 42 54 56 57 50 42 35 30 31 31 29 29 29 29 28 29 34 47 61 47 46 54 52 51 53 56 59 60 55 67
92 95 81 53 32 32 35 63 48 52 59 61 57 87 75 55 54 40 34 30 28 27 26 30 30 31 31 29 28 31 44 49 47 42 44 52 61 59 55 55 53 70 77 77
85 86 70 36 34 36 65 77 64 62 66 68 76 74 60 48 40 31 27 24 22 23 26 27 29 30 31 28 28 30 38 45 53 64 80 82 80 59 53 60 70 90 96 90
84 96 88 34 37 81 68 62 64 64 67 70 61 56 43 35 31 27 23 20 19 22 24 26 25 28 27 28 28 36 47 53 56 68 74 70 69 61 61 63 74 87 91 89
68 72 53 49 56 63 65 66 72 71 61 56 51 41 35 32 28 22 22 21 22 24 27 27 27 27 30 33 38 48 50 56 61 72 77 69 81 66 63 64 85 89 82 84
69 44 37 54 63 62 62 67 63 62 49 41 42 35 34 26 23 24 24 25 24 26 28 31 28 28 34 44 49 49 58 60 58 62 66 64 61 61 64 85 90 79 81 82
61 45 51 69 69 71 62 62 58 41 38 36 34 32 27 26 25 27 28 27 28 31 32 33 32 38 42 47 54 62 65 64 68 74 74 74 70 71 79 86 85 89 89 89
80 65 62 74 72 66 62 54 43 35 34 32 28 27 28 30 28 28 30 29 31 32 34 38 41 48 50 51 59 70 78 74 80 82 84 82 73 70 72 79 71 70 68 87
56 60 68 71 69 56 48 42 32 34 30 26 27 28 30 29 30 37 34 35 37 38 44 53 60 61 56 68 76 84 81 77 68 73 90 84 84 83 86 81 80 82 76 74
49 63 73 61 60 47 36 32 34 23 23 28 30 29 30 35 38 39 40 41 44 47 54 62 70 74 77 74 76 86 82 81 86 88 92 92 90 83 88 92 91 88 90 80
54 56 62 63 41 35 29 24 27 28 29 30 30 37 43 46 49 49 49 51 58 63 63 67 78 80 75 76 74 71 72 79 90 91 96 94 91 92 90 88 87 85 84 86
46 41 39 38 34 28 26 27 31 34 32 36 49 64 56 56 57 61 60 67 86 85 86 96 98 87 82 70 69 68 69 79 84 84 92 92 92 92 88 90 88 88 88 95
56 54 43 40 32 31 31 32 39 42 47 63 69 77 80 83 88 76 78 83 87 91 96 98 98 76 84 75 72 67 74 80 84 88 84 94 92 92 92 92 91 90 91 95
39 35 28 30 32 37 48 59 67 66 70 75 88 94 96 95 91 90 83 82 89 90 90 97 94 85 83 74 75 78 84 85 88 91 90 92 92 89 88 92 92 92 94 92
29 29 30 30 35 60 67 68 68 81 89 92 94 93 93 94 85 85 88 92 92 88 85 98 93 90 78 73 74 83 88 89 87 88 88 89 95 91 92 93 94 95 92 94
30 30 35 41 54 76 81 80 90 83 78 84 95 94 92 87 90 90 88 92 88 88 93 94 90 86 85 77 87 79 82 88 88 88 91 91 92 92 94 90 94 94 93 94
61 60 63 86 90 93 99 98 96 96 90 96 98 94 93 91 88 91 96 88 77 99 99 92 87 81 76 76 80 90 91 92 92 92 92 92 92 91 92 94 93 94 95 96
63 68 88 92 93 88 88 90 88 98 98 96 96 96 95 92 91 86 89 94 85 96 99 93 89 84 80 81 80 95 94 90 90 92 92 92 92 93 93 95 95 93 94 95
67 65 69 86 92 81 83 96 94 98 98 97 98 92 93 92 91 96 92 83 98 96 99 100 94 90 85 92 96 95 98 93 91 91 91 92 92 92 93 94 96 95 94 94
68 67 69 74 88 90 90 80 80 89 99 97 95 96 98 98 94 86 87 91 98 97 100 99 98 93 90 97 92 92 96 94 93 92 92 89 91 92 94 92 95 94 95 93
76 74 74 85 82 80 79 74 76 79 84 81 86 83 91 94 96 88 100 99 99 99 100 99 98 98 97 95 93 92 95 93 93 93 92 94 91 91 91 91 92 94 95 95
71 68 66 69 70 68 70 70 76 82 88 90 88 94 98 100 99 96 97 98 99 98 99 100 100 99 98 96 96 96 93 92 91 91 92 93 93 92 93 92 93 94 96 96
70 79 70 69 66 67 70 75 94 97 95 99 94 94 88 91 94 94 94 100 100 99 100 100 100 98 98 96 96 93 93 96 92 90 91 94 94 93 94 96 97 96 95 94